Date String (YYYY-MM-DD hh:mm:ss) UTC,Instrument flags,Ambient pressure (hPa),Sample flow (lpm),Bypass flow (lpm),Sample temperature (°C),Ambient temperature (°C),ASC tube jacket temperature (°C),LED temperature (°C),Box temperature (°C),Sample RH (%),Span deviation,Mass concentration (μg/m³),Mass concentration (μg/m³),Mass concentration (μg/m³)
DateTimeUTC,F1_M11,P_M11,Q1_M11,Q2_M11,T1_M11,T2_M11,T3_M11,T4_M11,T5_M11,U1_M11,ZSPAN_M11,X0_M11,X2_M11,X1_M11
2022-10-29 18:00:00,,0830.8,5.01,0.00,25.3,24.0,00.0,34.1,27.2,07.3,0000.0,0006.52,0003.44,0003.24
2022-10-29 18:01:00,,0830.8,4.98,0.00,25.3,24.0,00.0,34.1,27.2,07.2,0000.0,0005.98,0003.38,0003.22
2022-10-29 18:02:00,,0830.8,5.02,0.00,25.3,24.0,00.0,34.1,27.2,07.2,0000.0,0004.79,0003.34,0003.18
2022-10-29 18:03:00,,0830.9,5.01,0.00,25.3,24.0,00.0,34.1,27.3,07.4,0000.0,0004.50,0003.29,0003.14
2022-10-29 18:04:00,,0830.8,4.98,0.00,25.3,24.1,00.0,34.1,27.3,07.2,0000.0,0004.34,0003.23,0003.06
2022-10-29 18:05:00,,0830.8,5.01,0.00,25.4,24.1,00.0,34.1,27.3,07.0,0000.0,0004.28,0003.19,0002.97
2022-10-29 18:06:00,,0830.8,5.00,0.00,25.4,24.1,00.0,34.1,27.3,07.0,0000.0,0004.21,0003.16,0002.91
2022-10-29 18:07:00,,0830.8,4.99,0.00,25.4,24.1,00.0,34.1,27.3,06.8,0000.0,0004.47,0003.16,0002.87
2022-10-29 18:08:00,,0830.8,5.01,0.00,25.4,24.1,00.0,34.1,27.3,06.8,0000.0,0004.59,0003.14,0002.83
2022-10-29 18:09:00,,0830.8,4.98,0.00,25.4,24.1,00.0,34.1,27.3,06.8,0000.0,0005.39,0003.11,0002.79
2022-10-29 18:10:00,,0830.7,5.01,0.00,25.4,24.0,00.0,34.1,27.3,06.9,0000.0,0006.06,0003.09,0002.76
2022-10-29 18:11:00,,0830.8,5.01,0.00,25.4,24.0,00.0,34.1,27.3,07.0,0000.0,0005.99,0003.05,0002.72
2022-10-29 18:12:00,,0830.7,4.98,0.00,25.4,24.0,00.0,34.1,27.2,07.0,0000.0,0005.94,0003.01,0002.67
2022-10-29 18:13:00,,0830.8,5.00,0.00,25.4,24.0,00.0,34.1,27.3,07.3,0000.0,0005.90,0002.95,0002.62
2022-10-29 18:14:00,,0830.8,4.99,0.00,25.4,24.0,00.0,34.1,27.3,06.9,0000.0,0005.92,0002.90,0002.56
2022-10-29 18:15:00,,0830.8,5.01,0.00,25.4,24.1,00.0,34.1,27.3,06.9,0000.0,0005.88,0002.87,0002.52
2022-10-29 18:16:00,,0830.8,4.99,0.00,25.4,24.1,00.0,34.1,27.3,06.9,0000.0,0005.79,0002.84,0002.50
2022-10-29 18:17:00,,0830.8,4.99,0.00,25.4,24.1,00.0,34.1,27.3,06.9,0000.0,0005.84,0002.83,0002.49
2022-10-29 18:18:00,,0830.8,5.01,0.00,25.4,24.1,00.0,34.1,27.3,06.9,0000.0,0006.07,0002.80,0002.48
2022-10-29 18:19:00,,0830.8,5.01,0.00,25.4,24.1,00.0,34.2,27.3,06.9,0000.0,0005.83,0002.77,0002.46
2022-10-29 18:20:00,,0830.8,4.98,0.00,25.4,24.1,00.0,34.2,27.3,06.9,0000.0,0005.36,0002.83,0002.45
2022-10-29 18:21:00,,0830.8,5.01,0.00,25.4,24.2,00.0,34.2,27.3,07.0,0000.0,0004.75,0002.83,0002.44
2022-10-29 18:22:00,,0830.8,4.99,0.00,25.4,24.2,00.0,34.2,27.3,06.6,0000.0,0004.66,0002.84,0002.42
2022-10-29 18:23:00,,0830.7,5.00,0.00,25.4,24.2,00.0,34.2,27.4,06.6,0000.0,0004.71,0002.85,0002.41
2022-10-29 18:24:00,,0830.8,5.01,0.00,25.5,24.2,00.0,34.2,27.4,07.0,0000.0,0005.01,0002.87,0002.42
2022-10-29 18:25:00,,0830.7,5.01,0.00,25.5,24.2,00.0,34.2,27.4,07.0,0000.0,0005.22,0002.92,0002.45
2022-10-29 18:26:00,,0830.7,4.98,0.00,25.5,24.3,00.0,34.2,27.4,07.0,0000.0,0006.09,0002.97,0002.47
2022-10-29 18:27:00,,0830.8,5.01,0.00,25.5,24.2,00.0,34.2,27.4,06.7,0000.0,0006.70,0003.01,0002.50
2022-10-29 18:28:00,,0830.8,5.01,0.00,25.5,24.2,00.0,34.2,27.4,06.6,0000.0,0006.67,0003.05,0002.53
2022-10-29 18:29:00,,0830.7,5.01,0.00,25.5,24.2,00.0,34.2,27.4,06.6,0000.0,0006.38,0003.09,0002.55
2022-10-29 18:30:00,,0830.7,4.98,0.00,25.5,24.2,00.0,34.3,27.4,06.7,0000.0,0006.86,0003.10,0002.56
2022-10-29 18:31:00,,0830.6,5.01,0.00,25.5,24.2,00.0,34.3,27.4,06.8,0000.0,0007.46,0003.08,0002.59
2022-10-29 18:32:00,,0830.6,4.98,0.00,25.5,24.3,00.0,34.3,27.5,07.1,0000.0,0007.37,0003.08,0002.62
2022-10-29 18:33:00,,0830.6,5.01,0.00,25.5,24.3,00.0,34.3,27.5,07.0,0000.0,0007.37,0003.10,0002.66
2022-10-29 18:34:00,,0830.6,4.98,0.00,25.5,24.3,00.0,34.3,27.5,07.1,0000.0,0007.37,0003.13,0002.71
2022-10-29 18:35:00,,0830.6,5.01,0.00,25.5,24.3,00.0,34.3,27.5,07.1,0000.0,0007.27,0003.16,0002.74
2022-10-29 18:36:00,,0830.6,4.99,0.00,25.6,24.3,00.0,34.3,27.5,07.2,0000.0,0007.26,0003.18,0002.77
2022-10-29 18:37:00,,0830.6,5.01,0.00,25.6,24.3,00.0,34.3,27.5,07.1,0000.0,0006.49,0003.18,0002.79
2022-10-29 18:38:00,,0830.6,5.01,0.00,25.6,24.3,00.0,34.3,27.5,07.2,0000.0,0006.05,0003.19,0002.81
2022-10-29 18:39:00,,0830.6,4.99,0.00,25.6,24.3,00.0,34.3,27.5,07.2,0000.0,0006.16,0003.20,0002.81
2022-10-29 18:40:00,,0830.6,5.01,0.00,25.6,24.4,00.0,34.3,27.5,07.2,0000.0,0006.38,0003.20,0002.82
2022-10-29 18:41:00,,0830.6,5.01,0.00,25.6,24.4,00.0,34.3,27.5,06.9,0000.0,0007.00,0003.22,0002.83
2022-10-29 18:42:00,,0830.6,4.99,0.00,25.6,24.4,00.0,34.3,27.5,06.8,0000.0,0007.29,0003.25,0002.84
2022-10-29 18:43:00,,0830.5,5.01,0.00,25.6,24.3,00.0,34.3,27.5,06.8,0000.0,0008.21,0003.29,0002.85
2022-10-29 18:44:00,,0830.5,4.98,0.00,25.6,24.4,00.0,34.4,27.5,06.8,0000.0,0008.54,0003.31,0002.87
2022-10-29 18:45:00,,0830.5,5.01,0.00,25.6,24.4,00.0,34.4,27.5,07.1,0000.0,0008.97,0003.30,0002.85
2022-10-29 18:46:00,,0830.4,4.98,0.00,25.6,24.4,00.0,34.4,27.6,06.9,0000.0,0009.17,0003.29,0002.85
2022-10-29 18:47:00,,0830.4,5.01,0.00,25.6,24.4,00.0,34.4,27.6,06.9,0000.0,0009.08,0003.27,0002.83
2022-10-29 18:48:00,,0830.4,5.00,0.00,25.7,24.4,00.0,34.4,27.6,06.7,0000.0,0009.06,0003.26,0002.83
2022-10-29 18:49:00,,0830.4,4.99,0.00,25.7,24.4,00.0,34.4,27.6,06.7,0000.0,0008.98,0003.25,0002.81
2022-10-29 18:50:00,,0830.4,5.00,0.00,25.7,24.4,00.0,34.4,27.6,06.8,0000.0,0008.90,0003.25,0002.81
2022-10-29 18:51:00,,0830.4,5.01,0.00,25.7,24.4,00.0,34.4,27.6,06.9,0000.0,0008.79,0003.25,0002.82
2022-10-29 18:52:00,,0830.4,5.01,0.00,25.7,24.5,00.0,34.4,27.6,07.0,0000.0,0009.03,0003.25,0002.83
2022-10-29 18:53:00,,0830.4,4.99,0.00,25.7,24.4,00.0,34.4,27.6,06.8,0000.0,0008.14,0003.23,0002.84
2022-10-29 18:54:00,,0830.4,5.01,0.00,25.7,24.4,00.0,34.5,27.6,06.7,0000.0,0007.86,0003.21,0002.84
2022-10-29 18:55:00,,0830.4,5.01,0.00,25.7,24.4,00.0,34.5,27.6,06.8,0000.0,0007.78,0003.20,0002.84
2022-10-29 18:56:00,,0830.4,5.00,0.00,25.7,24.4,00.0,34.5,27.6,06.8,0000.0,0007.13,0003.19,0002.84
2022-10-29 18:57:00,,0830.4,5.01,0.00,25.7,24.4,00.0,34.5,27.6,06.9,0000.0,0007.05,0003.22,0002.84
2022-10-29 18:58:00,,0830.3,4.99,0.00,25.7,24.5,00.0,34.5,27.6,06.9,0000.0,0007.07,0003.21,0002.84
2022-10-29 18:59:00,,0830.3,5.01,0.00,25.7,24.5,00.0,34.5,27.6,07.0,0000.0,0007.17,0003.21,0002.85
